Sparta, WI

7:25 AM CST on February 22, 2017 (GMT -0600)
Sparta-Fort McCoy

Weather History for KCMY - October, 2011

Change the Weather History Date:

Monday, October 24, 2011

  Actual Average Record
Temperature  
Mean Temperature 44 °F -  
Max Temperature 82 °F 58 °F 82 °F (2011)
Min Temperature 27 °F 38 °F 16 °F (1960)
Degree Days  
Heating Degree Days 20    
Moisture  
Dew Point 36 °F    
Average Humidity 75    
Maximum Humidity 100    
Minimum Humidity 39    
Precipitation  
Precipitation 0.00 in - - ()
Sea Level Pressure  
Sea Level Pressure 30.01 in    
Wind  
Wind Speed 3 mph (SW)    
Max Wind Speed 12 mph    
Max Gust Speed -    
Visibility 10 miles    
Events      
Averages and records for this station are not official NWS values.
T = Trace of Precipitation, MM = Missing Value Source: NWS Daily Summary

Daily Weather History Graph

Daily Weather History Graph

Search for Another Location

Airport or City:

Trip Planner

Search our weather history database for the weather conditions in past years. The results will help you decide how hot, cold, wet, or windy it might be!

Date:

Astronomy

Oct. 24, 2011 Rise Set
Actual Time 7:28 AM CDT 6:05 PM CDT
Civil Twilight 6:59 AM CDT 6:34 PM CDT
Nautical Twilight 6:25 AM CDT 7:08 PM CDT
Astronomical Twilight 5:51 AM CDT 7:41 PM CDT
Moon 4:43 AM CDT (10/24) 4:32 PM CDT (10/24)
Length of Visible Light 11h 35m
Length of Day
10h 36m
Waning Crescent, 7% of the Moon is Illuminated
Oct 24
Waning Crescent
Oct 26
New
Nov 2
First Quarter
Nov 10
Full
Nov 18
Last Quarter

Hourly Weather History & Observations

Time (CDT) Temp. Windchill Dew Point Humidity Pressure Visibility Wind Dir Wind Speed Gust Speed Precip Events Conditions
12:15 AM 44.8 °F 42.4 °F 40.1 °F 84% 29.92 in 10.0 mi WNW 4.6 mph - N/A   Clear
12:35 AM 43.3 °F 41.7 °F 39.2 °F 85% 29.93 in 10.0 mi West 3.5 mph - N/A   Clear
12:55 AM 40.6 °F - 37.9 °F 90% 29.93 in 10.0 mi Calm Calm - N/A   Clear
1:15 AM 37.8 °F - 36.1 °F 94% 29.94 in 10.0 mi Calm Calm - N/A   Clear
1:35 AM 34.9 °F - 33.6 °F 95% 29.94 in 10.0 mi Calm Calm - N/A   Clear
1:55 AM 33.6 °F 30.6 °F 32.9 °F 97% 29.94 in 10.0 mi East 3.5 mph - N/A   Clear
2:15 AM 32.5 °F 29.3 °F 32.2 °F 99% 29.94 in 10.0 mi ESE 3.5 mph - N/A   Clear
2:35 AM 32.2 °F - 32.0 °F 99% 29.94 in 10.0 mi Calm Calm - N/A   Clear
2:55 AM 32.2 °F 28.9 °F 32.2 °F 100% 29.94 in 10.0 mi East 3.5 mph - N/A   Clear
3:15 AM 31.3 °F - 31.1 °F 99% 29.94 in 10.0 mi Calm Calm - N/A   Clear
3:35 AM 31.3 °F - 31.1 °F 99% 29.95 in 10.0 mi Calm Calm - N/A   Clear
3:55 AM 30.2 °F 26.7 °F 30.0 °F 99% 29.95 in 10.0 mi East 3.5 mph - N/A   Clear
4:35 AM 28.4 °F 24.6 °F 28.2 °F 99% 29.96 in 10.0 mi East 3.5 mph - N/A   Clear
4:55 AM 28.4 °F - 27.9 °F 98% 29.96 in 10.0 mi Calm Calm - N/A   Clear
5:15 AM 28.8 °F - 28.2 °F 98% 29.97 in 10.0 mi Calm Calm - N/A   Clear
5:35 AM 28.2 °F - 27.3 °F 96% 29.98 in 10.0 mi Calm Calm - N/A   Clear
5:55 AM 28.2 °F - 27.5 °F 97% 29.98 in 10.0 mi Calm Calm - N/A   Clear
6:15 AM 28.2 °F - 27.5 °F 97% 29.98 in 10.0 mi Calm Calm - N/A   Clear
6:35 AM 28.8 °F - 28.2 °F 98% 29.99 in 10.0 mi Calm Calm - N/A   Clear
6:55 AM 27.7 °F - 26.8 °F 96% 29.99 in 10.0 mi Calm Calm - N/A   Clear
7:15 AM 27.7 °F - 27.0 °F 97% 30.01 in 10.0 mi Calm Calm - N/A   Clear
7:35 AM 27.9 °F - 26.8 °F 96% 30.01 in 10.0 mi Calm Calm - N/A   Clear
7:55 AM 28.0 °F - 27.3 °F 97% 30.03 in 10.0 mi Calm Calm - N/A   Clear
8:15 AM 31.1 °F 27.7 °F 30.7 °F 99% 30.04 in 10.0 mi WSW 3.5 mph - N/A   Clear
8:35 AM 37.8 °F 34.2 °F 37.0 °F 97% 30.04 in 10.0 mi WSW 4.6 mph - N/A   Clear
8:55 AM 40.1 °F 36.9 °F 38.1 °F 93% 30.05 in 10.0 mi WSW 4.6 mph - N/A   Clear
9:15 AM 42.3 °F 39.4 °F 38.7 °F 87% 30.05 in 10.0 mi SW 4.6 mph - N/A   Clear
9:35 AM 44.4 °F 42.0 °F 39.0 °F 81% 30.05 in 10.0 mi WSW 4.6 mph - N/A   Clear
9:55 AM 46.8 °F - 39.0 °F 74% 30.06 in 10.0 mi WSW 4.6 mph - N/A   Clear
10:15 AM 49.1 °F - 39.4 °F 69% 30.06 in 10.0 mi WSW 5.8 mph - N/A   Clear
10:35 AM 51.1 °F - 39.2 °F 64% 30.06 in 10.0 mi SW 5.8 mph - N/A   Clear
10:55 AM 52.7 °F - 39.2 °F 60% 30.06 in 10.0 mi WSW 6.9 mph - N/A   Clear
11:15 AM 54.5 °F - 39.2 °F 56% 30.06 in 10.0 mi WSW 8.1 mph - N/A   Clear
11:35 AM 55.4 °F - 39.2 °F 54% 30.06 in 10.0 mi West 5.8 mph - N/A   Clear
11:55 AM 56.5 °F - 39.0 °F 52% 30.06 in 10.0 mi West 11.5 mph - N/A   Scattered Clouds
12:15 PM 57.6 °F - 39.0 °F 50% 30.05 in 10.0 mi WNW 9.2 mph - N/A   Clear
12:35 PM 58.3 °F - 38.8 °F 48% 30.05 in 10.0 mi West 4.6 mph - N/A   Clear
12:55 PM 58.8 °F - 38.5 °F 47% 30.04 in 10.0 mi West 5.8 mph - N/A   Clear
1:35 PM 59.9 °F - 37.4 °F 43% 30.03 in 10.0 mi WSW 5.8 mph - N/A   Clear
1:55 PM 60.3 °F - 36.9 °F 42% 30.03 in 10.0 mi SW 5.8 mph - N/A   Clear
2:35 PM 61.3 °F - 36.3 °F 39% 30.02 in 10.0 mi West 6.9 mph - N/A   Clear
3:15 PM 60.8 °F - 37.4 °F 42% 30.02 in 10.0 mi WSW 6.9 mph - N/A   Clear
3:35 PM 61.7 °F - 38.3 °F 42% 30.02 in 10.0 mi WSW 8.1 mph - N/A   Scattered Clouds
3:55 PM 62.4 °F - 38.1 °F 41% 30.02 in 10.0 mi WNW 5.8 mph - N/A   Scattered Clouds
4:15 PM 61.7 °F - 38.7 °F 43% 30.02 in 10.0 mi WSW 8.1 mph - N/A   Scattered Clouds
4:35 PM 61.5 °F - 39.2 °F 44% 30.03 in 10.0 mi SW 5.8 mph - N/A   Scattered Clouds
4:55 PM 61.3 °F - 39.4 °F 44% 30.03 in 10.0 mi West 8.1 mph - N/A   Mostly Cloudy
5:15 PM 60.8 °F - 39.7 °F 46% 30.02 in 10.0 mi SW 3.5 mph - N/A   Overcast
5:35 PM 60.3 °F - 39.9 °F 47% 30.03 in 10.0 mi Calm Calm - N/A   Overcast
5:55 PM 58.6 °F - 40.3 °F 51% 30.02 in 10.0 mi South 4.6 mph - N/A   Overcast
6:15 PM 56.8 °F - 40.6 °F 55% 30.02 in 10.0 mi SSE 3.5 mph - N/A   Overcast
6:35 PM 55.8 °F - 40.6 °F 57% 30.02 in 10.0 mi ESE 3.5 mph - N/A   Overcast
7:15 PM 53.8 °F - 41.0 °F 62% 30.02 in 10.0 mi ESE 3.5 mph - N/A   Overcast
7:35 PM 52.9 °F - 41.0 °F 64% 30.02 in 10.0 mi Calm Calm - N/A   Overcast
7:55 PM 51.4 °F - 40.8 °F 67% 30.02 in 10.0 mi ESE 3.5 mph - N/A   Mostly Cloudy
8:15 PM 50.4 °F - 40.3 °F 68% 30.02 in 10.0 mi Calm Calm - N/A   Clear
8:35 PM 48.2 °F - 40.1 °F 74% 30.02 in 10.0 mi Calm Calm - N/A   Clear
9:35 PM 46.2 °F - 39.7 °F 78% 30.02 in 10.0 mi Calm Calm - N/A   Clear
10:35 PM 43.9 °F - 39.7 °F 85% 30.03 in 10.0 mi Calm Calm - N/A   Scattered Clouds
11:15 PM 41.4 °F - 38.7 °F 90% - 10.0 mi Calm Calm - N/A   Clear
11:35 PM 39.9 °F - 37.8 °F 92% 30.02 in 10.0 mi Calm Calm - N/A   Clear
11:55 PM 39.4 °F - 37.2 °F 92% 30.02 in 10.0 mi Calm Calm - N/A   Mostly Cloudy